Regional Weather Roundup
Issued by NWS

Home | Current Version | Previous Version | Graphics & Text | Print | Product List | Glossary On
Versions: 1 2 3 4 5 6 7 8 9 10 11 12 13 14 15 16 17 18 19 20 21 22 23 24 25 26 27 28 29 30 31 32 33 34 35 36 37 38 39 40 41 42 43 44 45 46 47 48 49 50
000
ASUS43 KTOP 232359
RWRKS

WEATHER ROUNDUP FOR KANSAS
NATIONAL WEATHER SERVICE GOODLAND KS
700 PM CDT THU OCT 23 2014

NOTE:  "FAIR" INDICATES FEW OR NO CLOUDS BELOW 12,000 FEET WITH NO
SIGNIFICANT WEATHER AND/OR OBSTRUCTIONS TO VISIBILITY.

KSZ001>006-013>018-027>032-041>047-240100-
NORTHWEST KANSAS

CITY           SKY/WX    TMP DP  RH WIND       PRES   REMARKS
GOODLAND       PTCLDY    63  53  70 S12       30.07R
6HR MIN TEMP:  63; 6HR MAX TEMP:  76;

HAYS           MOCLDY    66  57  72 S5        30.04R
HILL CITY      MOCLDY    67  57  70 SW3       30.04R
6HR MIN TEMP:  61; 6HR MAX TEMP:  74;

RUSSELL        MOCLDY    66  58  75 S7        30.03R
6HR MIN TEMP:  65; 6HR MAX TEMP:  75;

$$

KSZ061>065-074>080-084>089-240100-
SOUTHWEST KANSAS

CITY           SKY/WX    TMP DP  RH WIND       PRES   REMARKS
DODGE CITY     CLEAR     64  56  75 SE6       30.06R
6HR MIN TEMP:  64; 6HR MAX TEMP:  76;

ELKHART          N/A     70  55  59 E6          N/A
GARDEN CITY    CLEAR     66  54  65 SE6       30.06R
6HR MIN TEMP:  65; 6HR MAX TEMP:  74;

GREAT BEND     PTCLDY    66  57  72 S6        30.05R
LIBERAL        PTCLDY    73  55  53 E5        30.07R
$$

KSZ066>073-081>083-090>101-240100-
SOUTHEAST KANSAS

CITY           SKY/WX    TMP DP  RH WIND       PRES   REMARKS
CHANUTE        CLOUDY    63  59  87 SE8       30.07S
6HR MIN TEMP:  63; 6HR MAX TEMP:  66;

COFFEYVILLE    PTCLDY    60  57  89 SE5       30.08R
6HR MIN TEMP:  60; 6HR MAX TEMP:  66; 6HR PCP: TRACE;

HUTCHINSON     MOCLDY    67  58  72 S7        30.03S
6HR MIN TEMP:  67; 6HR MAX TEMP:  75;

NEWTON         CLOUDY    66  57  72 S5        30.07R
PARSONS        CLEAR     61  58  90 S5        30.09R
6HR MIN TEMP:  61; 6HR MAX TEMP:  66;

WICHITA INTL   MOCLDY    69  59  70 S7        30.03S
6HR MIN TEMP:  69; 6HR MAX TEMP:  76;

WICHITA JABRA  PTCLDY    65  59  81 SE5       30.04R
6HR MIN TEMP:  65; 6HR MAX TEMP:  72;

WINFIELD       CLOUDY    69  61  75 SE6       30.06R
6HR MIN TEMP:  68; 6HR MAX TEMP:  75;

$$

KSZ007>012-019>026-033>040-048>060-102>105-240100-
NORTHEAST KANSAS

CITY           SKY/WX    TMP DP  RH WIND       PRES   REMARKS
CONCORDIA      MOCLDY    66  57  72 CALM      30.02R
6HR MIN TEMP:  63; 6HR MAX TEMP:  74;

EMPORIA        PTCLDY    62  60  93 SE6       30.05R
6HR MIN TEMP:  62; 6HR MAX TEMP:  70;

LAWRENCE       CLEAR     59  57  93 E6        30.06R
6HR MIN TEMP:  59; 6HR MAX TEMP:  68;

MANHATTAN      CLEAR     65  57  75 SW3       30.02R
6HR MIN TEMP:  65; 6HR MAX TEMP:  76;

OLATHE IND     CLOUDY    62  59  90 S6        30.07R
6HR MIN TEMP:  62; 6HR MAX TEMP:  66;

OLATHE EXE     CLOUDY    63  60  90 S3        30.07R
6HR MIN TEMP:  63; 6HR MAX TEMP:  65;

SALINA         MOCLDY    66  59  78 S7        30.03R
6HR MIN TEMP:  66; 6HR MAX TEMP:  77;

TOPEKA BILLARD CLEAR     64  62  93 E5        30.05R
6HR MIN TEMP:  64; 6HR MAX TEMP:  72;

TOPEKA FORBES  CLEAR     62  60  93 SE6       30.05R
6HR MIN TEMP:  62; 6HR MAX TEMP:  71;

$$



USA.gov is the U.S. government's official web portal to all federal, state and local government web resources and services.